Regional Weather Roundup
Issued by NWS Goodland, KS

Home | Current Version | Previous Version | Text Only | Print | Product List | Glossary On
Versions: 1 2 3 4 5 6 7 8 9 10 11 12 13 14 15 16 17 18 19 20 21 22 23 24 25 26 27 28 29 30 31 32 33 34 35 36 37 38 39 40 41 42 43 44 45 46 47 48 49 50
000
ASUS43 KGLD 161208
RWRGLD

GOODLAND FORECAST AREA HOURLY WEATHER ROUNDUP
NATIONAL WEATHER SERVICE GOODLAND KS
500 AM MST TUE JAN 16 2018

...OFFICIAL OBSERVATIONS...

CITY           SKY/WX    TMP DP  RH WIND       PRES   REMARKS
GOODLAND KS    CLEAR     -5  -9  83 NW7       30.61R
HILL CITY KS   CLEAR     -3  -9  75 NW7       30.73S
IMPERIAL NEB   CLEAR     -5 -10  79 NW12      30.64S WCI -23
MCCOOK NEB     CLEAR     -2 -10  69 NW13      30.70S WCI -20
AKRON CO       CLEAR     -6 -11  79 W8        30.51F
BURLINGTON CO  CLEAR     -4  -9  79 NW13      30.55F WCI -23
LIMON CO       CLEAR     -5 -11  75 CALM      30.48S
$$

...UNOFFICIAL OBSERVATIONS...

CITY           SKY/WX    TMP DP  RH WIND       PRES   REMARKS
COLBY KS       CLEAR     -2  -6  84 NW8       30.65S
LENORA KS        N/A     -3  32 100 N7          N/A
NORTON KS      CLEAR     -2 -11  65 NW10      30.71  WCI -19
SHARON SPRINGS   N/A     -5 -10  77 CALM        N/A
TRENTON NEB      N/A     -4  32 100 NW7         N/A
KIT CARSON CO    N/A     -3  -9  75 MISG        N/A
YUMA CO        FAIR      -9 -15  77 W7        30.57S
$$



USA.gov is the U.S. government's official web portal to all federal, state and local government web resources and services.